Flag for Brazil Weather past 2 weeks in Joinville, Santa Catarina, Brazil

Now
66 °F

Sunny.


Feels Like: 66 °F
Forecast: 56 / 77 °F
Wind: 7 mph from East

Location: Curitiba Aeroporto

Current Time: Aug 20, 2014 at 12:04:20 PM

Latest Report: Aug 20, 2014 at 11:00 AM


Visibility: 10 mi

Pressure: 30.30 "Hg

Humidity: 64%

Dew point: 54 °F

Location of JoinvilleLocation

Historic Weather in Joinville — Graph

°F

Joinville temperature yesterday

Maximum temperature yesterday: 73 °F (at 3:00 PM)
Minimum temperature yesterday: 52 °F (at 6:00 AM)
Average temperature yesterday: 59 °F

Past Weeks' High & Low Weather Summary

 TemperatureHumidityPressure
High79 °F (Aug 12, 11:00 AM)100% (Aug 5, 11:00 PM)30.45 "Hg (Aug 5, 11:00 PM)
Low41 °F (Aug 6, 4:00 AM)32% (Aug 11, 1:00 PM)30.01 "Hg (Aug 12, 4:00 PM)
Average56 °F87%30.27 "Hg
* Reported Aug 5 11:00 AM — Aug 20 11:00 AM, Joinville, Weather by CustomWeather, © 2014

Note: Actual official high and low records may vary slightly from our data, if they occured in-between our weather recording intervals... More about our weather records

Advertising

Joinville weather history for previous 24 hours

 ConditionsComfort  
Time TempWeatherWind HumidityBarometerVisibility
11:00 AM
Aug 20
66 °FSunny.7 mph64%30.30 "Hg10 mi
10:00 AM59 °FSunny.2 mph94%30.33 "Hg10 mi
9:10 AM52 °FFog.No wind100%30.33 "Hg1 mi
9:00 AM50 °FFog.No wind100%30.33 "Hg1 mi
8:00 AM46 °FFog.No wind100%N/A1 mi
7:00 AM43 °FFog.No wind100%N/A0 mi
6:00 AM45 °FFog.No wind100%N/A0 mi
5:00 AM46 °FFog.No wind100%N/A0 mi
4:00 AM46 °FFog.No wind100%N/A1 mi
3:00 AMN/AFog.No windN/AN/A1 mi
2:00 AM48 °FPassing clouds.No wind100%30.27 "Hg3 mi
1:00 AM48 °FPassing clouds.No wind100%30.27 "Hg5 mi
12:00 AM50 °FPassing clouds.2 mph100%30.27 "Hg5 mi
11:00 PM
Aug 19
54 °FPassing clouds.No wind100%30.27 "Hg5 mi
10:00 PM54 °FClear.3 mph100%30.27 "Hg10 mi
9:00 PM55 °FClear.3 mph100%30.27 "Hg10 mi
8:00 PM57 °FClear.2 mph94%30.27 "Hg10 mi
7:00 PM59 °FClear.6 mph94%30.24 "Hg10 mi
6:00 PM64 °FClear.7 mph78%30.21 "Hg10 mi
5:00 PM72 °FClear.2 mph50%30.21 "Hg10 mi
4:00 PM72 °FSunny.3 mph44%30.21 "Hg10 mi
3:00 PM73 °FSunny.3 mph44%30.21 "Hg10 mi
2:00 PM70 °FSunny.6 mph53%30.24 "Hg10 mi
1:00 PM70 °FSunny.5 mph60%30.27 "Hg10 mi
12:00 PM66 °FClear.6 mph68%30.27 "Hg4 mi
Weather by CustomWeather, © 2014

See weather overviewHow to use our weather pages